This demonstration page uses our WeatherBlox Daily Observations layout. Learn more.

Left ArrowRight Arrow

Hourly Observations for December 4, 2020

Temp ( °F °C ) Dew Point ( °F °C ) Humidity (%) Winds ( mph kmh ) Pressure ( in mb ) Visibility ( mi km ) Precip ( " mm )
12:52 am 00:52 Clear 28 -2.2 21 -6.1 75 75 SE 7 11 30.08 1019 10 16 0.00 0.00
1:52 am 01:52 Clear 26 -3.3 21 -6.1 81 81 SE 6 9 30.07 1018 10 16 0.00 0.00
2:52 am 02:52 Clear 27 -2.8 21 -6.1 78 78 SE 3 6 30.06 1018 10 16 0.00 0.00
3:52 am 03:52 Clear 29 -1.7 21 -6.1 72 72 Calm 30.05 1018 10 16 0.00 0.00
4:52 am 04:52 Clear 27 -2.8 19 -7.2 72 72 Calm 30.04 1017 10 16 0.00 0.00
5:52 am 05:52 Clear 27 -2.8 20 -6.7 75 75 NW 8 13 30.04 1017 10 16 0.00 0.00
6:52 am 06:52 Clear 25 -3.9 18 -7.8 75 75 NW 8 13 30.05 1018 10 16 0.00 0.00
7:52 am 07:52 Sunny 27 -2.8 20 -6.7 75 75 NW 7 11 30.06 1018 10 16 0.00 0.00
8:52 am 08:52 Sunny 33 0.6 22 -5.6 64 64 WNW 7 11 30.07 1018 10 16 0.00 0.00
9:52 am 09:52 Sunny 37 2.8 24 -4.4 59 59 VRB 5 7 30.08 1019 10 16 0.00 0.00
10:52 am 10:52 Sunny 45 7.2 26 -3.3 48 48 NNW 6 9 30.08 1019 10 16 0.00 0.00
11:52 am 11:52 Sunny 47 8.3 27 -2.8 46 46 WNW 9 15 30.07 1018 10 16 0.00 0.00
12:52 pm 12:52 Sunny 50 10 28 -2.2 43 43 WNW 9 15 30.05 1018 10 16 0.00 0.00
1:52 pm 13:52 Mostly Sunny 51 10.6 28 -2.2 41 41 WNW 10 17 30.04 1017 10 16 0.00 0.00
2:52 pm 14:52 Partly Cloudy 53 11.7 28 -2.2 38 38 NW 10 17 30.04 1017 10 16 0.00 0.00
3:52 pm 15:52 Partly Cloudy 53 11.7 29 -1.7 40 40 WNW 5 7 30.04 1017 10 16 0.00 0.00
4:52 pm 16:52 Mostly Cloudy 48 8.9 28 -2.2 46 46 W 6 9 30.05 1018 10 16 0.00 0.00
5:52 pm 17:52 Mostly Cloudy 43 6.1 27 -2.8 53 53 Calm 30.07 1018 10 16 0.00 0.00
6:52 pm 18:52 Mostly Cloudy 39 3.9 27 -2.8 62 62 Calm 30.08 1019 10 16 0.00 0.00
7:52 pm 19:52 Partly Cloudy 35 1.7 26 -3.3 70 70 Calm 30.09 1019 10 16 0.00 0.00
8:52 pm 20:52 Mostly Clear 32 0 27 -2.8 82 82 Calm 30.10 1019 10 16 0.00 0.00
9:52 pm 21:52 Mostly Clear 30 -1.1 26 -3.3 85 85 N 3 6 30.11 1020 10 16 0.00 0.00
10:52 pm 22:52 Mostly Clear 30 -1.1 25 -3.9 82 82 Calm 30.11 1020 10 16 0.00 0.00
11:52 pm 23:52 Mostly Clear 29 -1.7 26 -3.3 89 89 Calm 30.11 1020 10 16 0.00 0.00

Powered by AerisWeather